Temp
2 3 3 4 5 6 7 7 7 7 8 9 9 8 9 9 9 9 9 8 8 7 7 6 6 5 5
1 2 2 4 4 5 6 7 7 7 8 8 8 8 9 9 9 9 9 8 8 7 7 6 6 6 5
-0 1 3 3 4 4 5 6 7 7 7 8 8 8 9 9 9 9 8 8 8 7 7 6 6 5 4
-1 1 1 2 2 3 5 5 5 6 6 7 7 8 8 8 9 9 8 8 8 7 6 6 5 4 4
-2 -1 1 1 2 3 4 4 4 4 6 6 7 7 8 8 9 9 9 7 8 7 6 6 5 4 3
-3 -1 0 1 2 3 3 3 3 3 4 4 5 5 5 6 7 7 7 7 7 6 6 4 3 3 4
-4 -2 -0 1 1 2 3 3 4 3 3 3 3 4 4 4 5 5 5 6 6 4 4 4 3 4 3
-4 -2 -1 1 0 1 2 3 3 3 3 2 2 2 2 2 2 3 3 3 4 3 3 3 3 3 2
-4 -3 -2 -1 -1 -0 1 2 3 3 3 3 1 1 1 2 2 2 3 3 3 3 3 3 3 2 1
-4 -4 -3 -2 -2 -0 0 1 3 2 2 3 1 1 -1 -1 -0 0 1 1 2 2 2 2 1 1 -0
-5 -5 -4 -3 -2 -1 -0 1 2 3 3 2 1 1 1 -1 -2 -1 0 1 1 1 1 0 -0 -1 -1
-5 -5 -4 -3 -2 -1 0 1 1 2 3 3 3 2 2 0 -2 -3 -1 -1 -1 -0 -1 -1 -2 -1 -1
-4 -4 -4 -3 -2 -1 -0 1 1 1 2 3 3 3 2 3 2 -1 -1 -3 -3 -2 -2 -2 -2 -2 -2
-4 -3 -3 -3 -2 -1 -0 0 1 1 1 2 2 2 2 1 1 0 -1 -2 -3 -3 -4 -3 -3 -3 -3
-3 -3 -3 -2 -2 -1 0 1 1 1 1 1 1 1 0 1 -0 -0 -1 -2 -3 -3 -3 -3 -3 -3 -4
-3 -3 -3 -2 -2 -1 0 0 1 1 1 1 1 -0 -1 -2 -1 -1 -3 -3 -3 -4 -4 -4 -4 -4 -4
-3 -3 -3 -2 -2 -1 -1 -0 -0 1 0 1 -0 -0 -1 -2 -4 -4 -3 -4 -3 -4 -4 -4 -4 -4 -4
Height
1401 1402 1403 1404 1405 1407 1409 1411 1413 1416 1419 1422 1426 1430 1432 1437 1441 1445 1444 1453 1461 1468 1475 1483 1487 1490 1498
1398 1399 1400 1402 1404 1404 1407 1409 1411 1415 1417 1420 1422 1428 1428 1432 1437 1441 1444 1448 1451 1461 1469 1477 1480 1486 1491
1395 1397 1397 1400 1402 1403 1404 1407 1409 1411 1415 1416 1417 1422 1425 1427 1431 1433 1437 1439 1448 1456 1461 1468 1476 1481 1489
1391 1393 1394 1396 1398 1402 1404 1406 1409 1412 1412 1415 1417 1420 1421 1421 1422 1427 1433 1437 1443 1447 1453 1463 1471 1478 1484
1385 1388 1390 1392 1396 1402 1400 1403 1409 1410 1411 1413 1414 1416 1415 1417 1419 1418 1425 1432 1436 1443 1453 1461 1470 1477 1481
1382 1384 1385 1389 1393 1397 1400 1402 1406 1408 1410 1411 1413 1417 1416 1415 1418 1418 1423 1429 1434 1442 1450 1460 1467 1473 1478
1376 1378 1382 1385 1390 1393 1396 1400 1401 1406 1408 1411 1417 1418 1418 1422 1422 1423 1430 1435 1439 1446 1455 1461 1467 1472 1476
1371 1373 1378 1383 1386 1389 1393 1396 1400 1404 1409 1413 1417 1417 1421 1425 1429 1433 1438 1439 1445 1450 1458 1462 1467 1471 1475
1366 1370 1373 1377 1380 1384 1388 1391 1395 1400 1405 1411 1415 1418 1423 1427 1432 1436 1437 1443 1448 1453 1457 1461 1465 1468 1472
1360 1363 1367 1371 1375 1380 1384 1388 1392 1398 1402 1408 1413 1417 1424 1428 1431 1435 1438 1442 1447 1451 1455 1459 1462 1466 1469
1354 1357 1360 1364 1369 1375 1379 1384 1389 1393 1397 1403 1409 1414 1418 1424 1431 1434 1438 1441 1445 1449 1453 1457 1461 1463 1466
1348 1350 1354 1358 1364 1370 1376 1381 1385 1391 1395 1400 1405 1409 1413 1419 1425 1432 1435 1440 1444 1448 1451 1455 1458 1462 1464
1342 1346 1350 1356 1360 1366 1370 1375 1382 1386 1390 1396 1401 1406 1411 1415 1420 1426 1431 1438 1442 1445 1449 1453 1457 1460 1462
1339 1343 1348 1351 1355 1361 1366 1371 1377 1381 1386 1391 1397 1403 1407 1413 1418 1421 1427 1432 1438 1442 1447 1451 1454 1458 1460
1334 1338 1343 1347 1351 1357 1361 1366 1372 1377 1382 1387 1393 1399 1405 1410 1415 1420 1424 1430 1435 1439 1445 1449 1452 1455 1457
1329 1334 1338 1343 1348 1352 1358 1362 1368 1373 1378 1383 1388 1394 1402 1409 1416 1418 1423 1429 1433 1438 1444 1448 1451 1453 1454
1325 1330 1335 1339 1344 1348 1352 1358 1364 1369 1374 1380 1385 1390 1395 1403 1412 1419 1422 1427 1432 1437 1442 1446 1449 1451 1453
Wind_Speed
16 25 22 12 10 9 11 14 16 17 18 17 16 15 15 16 18 22 38 37 44 36 35 37 41 40 29
14 11 17 21 14 9 7 7 11 14 13 12 11 13 12 14 18 27 28 35 50 40 40 43 48 41 31
19 9 10 15 11 11 10 9 8 9 13 11 9 9 11 15 18 20 21 27 46 44 45 49 46 37 26
26 19 11 17 19 12 16 11 9 9 11 10 7 7 11 12 17 22 30 39 36 47 53 48 41 28 23
24 22 17 15 19 19 11 12 10 10 10 8 5 6 9 12 13 18 24 29 48 50 45 34 35 26 17
22 22 9 12 15 23 17 16 11 8 8 7 5 5 3 0 3 6 32 49 54 44 45 34 23 16 10
24 25 22 9 12 20 20 15 12 11 9 11 8 8 12 10 10 25 42 38 39 35 26 22 18 12 12
27 27 25 23 13 11 20 20 17 15 15 16 16 18 19 19 22 24 26 26 28 27 19 15 12 14 14
28 28 29 28 23 16 16 27 23 22 22 16 23 23 21 23 20 20 21 22 20 14 14 17 17 14 14
25 25 25 27 20 20 15 26 28 24 27 25 30 29 18 18 18 19 19 17 16 14 14 13 12 12 11
24 27 28 26 26 24 21 19 30 24 27 30 34 30 18 25 21 19 19 19 17 15 14 12 12 10 10
23 24 24 24 30 26 23 22 21 28 21 31 28 32 26 26 28 24 20 17 15 16 14 12 11 12 11
24 23 21 17 21 30 24 22 23 27 21 25 26 26 29 26 29 31 29 25 21 18 16 15 14 11 10
25 22 18 19 21 30 26 27 28 23 22 22 26 24 32 27 28 33 32 26 27 23 18 15 12 11 9
26 22 21 21 22 28 27 29 29 27 26 26 27 25 29 28 25 29 31 28 20 22 19 16 14 11 9
29 25 23 22 23 26 29 29 30 28 29 29 29 28 25 24 21 26 28 25 22 21 18 16 13 11 8
30 28 25 23 22 26 30 31 31 31 29 28 29 31 33 30 23 24 26 24 24 22 18 15 12 9 7
Wind_Direction
264 266 271 288 259 225 221 229 232 238 237 235 238 238 236 242 239 226 210 210 217 203 204 202 200 208 215
253 293 263 269 264 233 222 217 219 225 226 224 223 229 230 228 224 222 229 233 210 201 201 202 209 210 211
250 250 236 247 240 228 240 244 231 226 226 223 219 230 235 238 231 232 224 226 203 208 203 204 208 203 206
246 241 241 245 247 270 222 231 225 205 186 189 205 263 256 247 245 233 215 206 216 204 197 201 205 195 191
243 241 251 247 237 244 241 212 206 204 197 198 207 264 240 227 231 228 208 215 210 197 193 205 197 185 191
236 231 212 229 235 226 225 193 171 189 194 168 165 204 156 17 170 163 196 195 195 182 198 175 168 177 194
243 233 227 207 215 227 224 234 207 201 184 151 157 157 147 155 176 171 172 175 180 168 172 183 180 201 234
236 236 231 222 221 214 233 221 203 189 186 147 160 151 146 148 149 154 159 159 166 166 162 171 204 218 219
235 236 230 235 235 227 217 210 189 184 194 185 166 158 158 155 164 170 171 172 174 187 205 218 210 207 213
229 226 226 228 224 224 220 216 209 189 190 179 176 164 148 161 164 172 179 184 194 200 201 198 205 213 217
234 232 225 223 216 216 219 220 212 199 197 196 185 182 171 173 170 181 186 186 186 188 193 201 208 210 225
231 232 230 225 219 216 215 212 217 216 220 200 203 200 198 176 173 185 193 193 193 199 194 204 204 214 218
225 225 226 230 220 213 215 213 219 223 218 204 213 215 211 213 199 193 194 197 196 200 201 197 205 211 214
227 219 220 221 218 210 213 213 215 215 199 198 214 216 210 212 216 200 203 193 201 199 194 198 199 206 210
220 224 218 217 209 209 217 206 215 205 198 200 204 207 207 213 201 205 204 199 197 197 190 193 195 200 203
216 218 218 218 210 206 213 211 207 203 200 197 199 194 195 193 202 200 195 192 186 182 188 192 192 192 197
213 214 217 217 213 208 202 205 201 197 198 200 199 198 185 176 177 186 191 181 181 179 182 188 191 186 192